Dallas Love, TX

8:38 AM CDT on April 28, 2017 (GMT -0500)
Dallas Love

Weather History for KDAL - January, 2014

Change the Weather History Date:

Saturday, January 25, 2014

  Actual Average Record
Temperature  
Mean Temperature 48 °F -  
Max Temperature 66 °F 55 °F 79 °F (2005)
Min Temperature 30 °F 37 °F 30 °F (2014)
Degree Days  
Heating Degree Days 17    
Moisture  
Dew Point 23 °F    
Average Humidity 44    
Maximum Humidity 64    
Minimum Humidity 25    
Precipitation  
Precipitation 0.00 in - - ()
Sea Level Pressure  
Sea Level Pressure 30.10 in    
Wind  
Wind Speed 3 mph (SW)    
Max Wind Speed 7 mph    
Max Gust Speed -    
Visibility 10 miles    
Events      
Averages and records for this station are not official NWS values.
T = Trace of Precipitation, MM = Missing Value Source: NWS Daily Summary

Daily Weather History Graph

Daily Weather History Graph

Search for Another Location

Airport or City:

Trip Planner

Search our weather history database for the weather conditions in past years. The results will help you decide how hot, cold, wet, or windy it might be!

Date:

Astronomy

Jan. 25, 2014 Rise Set
Actual Time 7:26 AM CST 5:53 PM CST
Civil Twilight 7:00 AM CST 6:19 PM CST
Nautical Twilight 6:30 AM CST 6:49 PM CST
Astronomical Twilight 6:01 AM CST 7:18 PM CST
Moon 2:01 AM CST (1/25) 12:54 PM CST (1/25)
Length of Visible Light 11h 19m
Length of Day
10h 26m
Waning Crescent, 34% of the Moon is Illuminated
Jan 25
Waning Crescent
Jan 30
New
Feb 6
First Quarter
Feb 14
Full
Feb 22
Last Quarter

Hourly Weather History & Observations

Time (CST) Temp. Windchill Dew Point Humidity Pressure Visibility Wind Dir Wind Speed Gust Speed Precip Events Conditions
12:53 AM 34.0 °F 28.0 °F 15.1 °F 46% 30.23 in 10.0 mi SW 6.9 mph - N/A   Clear
1:53 AM 32.0 °F 26.4 °F 15.1 °F 50% 30.21 in 10.0 mi SSW 5.8 mph - N/A   Clear
2:53 AM 30.9 °F 27.5 °F 17.1 °F 57% 30.17 in 10.0 mi South 3.5 mph - N/A   Clear
3:53 AM 32.0 °F 27.5 °F 18.0 °F 56% 30.15 in 10.0 mi SSW 4.6 mph - N/A   Clear
4:53 AM 30.0 °F - 18.0 °F 61% 30.14 in 10.0 mi Calm Calm - N/A   Clear
5:53 AM 30.0 °F - 19.0 °F 64% 30.13 in 10.0 mi Calm Calm - N/A   Clear
6:53 AM 30.9 °F 26.2 °F 19.9 °F 64% 30.13 in 10.0 mi SW 4.6 mph - N/A   Partly Cloudy
7:49 AM 32.0 °F - 17.6 °F 55% 30.12 in 10.0 mi Calm Calm - N/A   Scattered Clouds
7:53 AM 32.0 °F 28.7 °F 18.0 °F 56% 30.13 in 10.0 mi SW 3.5 mph - N/A   Scattered Clouds
8:07 AM 33.8 °F 30.8 °F 17.6 °F 52% 30.12 in 10.0 mi SW 3.5 mph - N/A   Scattered Clouds
8:53 AM 36.0 °F 33.3 °F 19.0 °F 50% 30.15 in 10.0 mi WSW 3.5 mph - N/A   Scattered Clouds
9:53 AM 44.1 °F - 19.0 °F 37% 30.16 in 10.0 mi Calm Calm - N/A   Mostly Cloudy
10:53 AM 50.0 °F - 19.0 °F 29% 30.16 in 10.0 mi NNW 4.6 mph - N/A   Mostly Cloudy
11:53 AM 55.9 °F - 21.0 °F 26% 30.13 in 10.0 mi NW 4.6 mph - N/A   Mostly Cloudy
12:53 PM 60.1 °F - 24.1 °F 25% 30.09 in 10.0 mi NW 4.6 mph - N/A   Mostly Cloudy
1:53 PM 63.0 °F - 27.0 °F 26% 30.06 in 10.0 mi NNW 3.5 mph - N/A   Mostly Cloudy
2:53 PM 64.9 °F - 28.0 °F 25% 30.05 in 10.0 mi Calm Calm - N/A   Scattered Clouds
3:53 PM 66.0 °F - 30.0 °F 26% 30.04 in 10.0 mi Calm Calm - N/A   Mostly Cloudy
4:53 PM 64.0 °F - 28.9 °F 27% 30.04 in 10.0 mi Calm Calm - N/A   Overcast
5:53 PM 62.1 °F - 30.0 °F 30% 30.04 in 10.0 mi SW 3.5 mph - N/A   Mostly Cloudy
6:53 PM 57.0 °F - 30.0 °F 36% 30.04 in 10.0 mi Calm Calm - N/A   Mostly Cloudy
7:53 PM 51.1 °F - 30.9 °F 46% 30.04 in 10.0 mi SE 4.6 mph - N/A   Overcast
8:53 PM 48.9 °F - 32.0 °F 52% 30.02 in 10.0 mi SE 5.8 mph - N/A   Overcast
9:53 PM 51.1 °F - 30.9 °F 46% 30.01 in 10.0 mi Calm Calm - N/A   Mostly Cloudy
10:53 PM 46.9 °F - 30.9 °F 54% 30.00 in 10.0 mi Calm Calm - N/A   Overcast
11:53 PM 48.0 °F - 32.0 °F 54% 29.99 in 10.0 mi Calm Calm - N/A   Overcast